Regional Weather Roundup
Issued by NWS

Home | Current Version | Previous Version | Graphics & Text | Print | Product List | Glossary On
Versions: 1 2 3 4 5 6 7 8 9 10 11 12 13 14 15 16 17 18 19 20 21 22 23 24 25 26 27 28 29 30 31 32 33 34 35 36 37 38 39 40 41 42 43 44 45 46 47 48 49 50
000
ASUS43 KLSX 222007
RWRMO

WEATHER SUMMARY FOR MISSOURI
NATIONAL WEATHER SERVICE SPRINGFIELD MO
300 PM CDT FRI SEP 22 2017

NOTE: "FAIR" INDICATES FEW OR NO CLOUDS BELOW 12,000 FEET WITH NO
       SIGNIFICANT WEATHER AND/OR OBSTRUCTIONS TO VISIBILITY.
       CURRENT SKY AND/OR WEATHER CONDITIONS ARE NOT AVAILABLE FOR
       CHILLICOTHE AND FARMINGTON.

MOZ001>031-035>038-043-044-053-054-222100-
...NORTHERN AND WESTERN MISSOURI...

CITY           SKY/WX    TMP DP  RH WIND       PRES   REMARKS
KANSAS CTY INT MOSUNNY   88  72  58 S14G28    29.94F HX  94
KANSAS C DTWN  MOSUNNY   91  72  53 S13       29.93F HX  98
LEE`S SUMMIT   MOSUNNY   88  70  55 S17       29.97S HX  93
ST JOSEPH      SUNNY     92  71  50 S20       29.91S HX  98
CHILLICOTHE      N/A     91  69  48 S8G22     29.96F HX  96
KIRKSVILLE     SUNNY     91  68  46 S13G21    29.99F HX  95

$$
MOZ066>068-077>081-088>096-101>105-222100-
...SOUTHWEST MISSOURI...

CITY           SKY/WX    TMP DP  RH WIND       PRES   REMARKS
SPRINGFIELD    SUNNY     90  66  45 S12       30.01F HX  92
JOPLIN         MOSUNNY   87  70  56 S13       29.99F HX  92
BRANSON        MOSUNNY   91  63  38 S8        30.04F HX  92

$$
MOZ032>034-039>042-045>050-055>058-069>072-222100-
...CENTRAL MISSOURI...

CITY           SKY/WX    TMP DP  RH WIND       PRES   REMARKS
COLUMBIA       SUNNY     91  65  41 S10       30.01F HX  93
JEFFERSON CITY SUNNY     90  65  43 SE9       29.99F HX  92
ROLLA          MOSUNNY   93  66  40 SW9G20    30.03F HX  96
SEDALIA        MOSUNNY   91  71  51 S9        30.00F HX  97
WHITEMAN AFB   MOSUNNY   89  70  53 S13       29.97F HX  93
WARRENSBURG    SUNNY     88  68  51 S12G17    29.97F HX  91
OSAGE BEACH    MOSUNNY   88  68  51 S8        30.01F HX  91

$$
MOZ051-052-059>065-222100-
...EAST CENTRAL MISSOURI...

CITY           SKY/WX    TMP DP  RH WIND       PRES   REMARKS
ST LOUIS INTL  MOSUNNY   95  61  32 SE13      30.01F HX  95
SPIRIT OF STL  MOSUNNY   91  65  41 E6        29.99F HX  93
ST CHARLES     MOSUNNY   95  61  32 S5        29.99F HX  95

$$
MOZ072>076-082>087-097>100-106>115-222100-
...SOUTH CENTRAL AND SOUTHEAST MISSOURI...

CITY           SKY/WX    TMP DP  RH WIND       PRES   REMARKS
CAPE GIRARDEAU MOSUNNY   95  61  32 CALM      30.00F HX  95
FARMINGTON     SUNNY     91  66  43 VRB3      30.03F HX  93
POPLAR BLUFF   SUNNY     91  65  41 SE3       30.00F HX  93
WEST PLAINS    SUNNY     88  63  43 S7        30.05F

$$



USA.gov is the U.S. government's official web portal to all federal, state and local government web resources and services.